Tracking 33195 objects as of 8-Feb-2026
HD Live streaming from Space Station
objects crossing your sky now

STARLINK-36099

Track STARLINK-36099 now!
10-day predictions
STARLINK-36099 is classified as:


NORAD ID: 66797
Int'l Code: 2025-278G
Perigee: 489.9 km
Apogee: 490.4 km
Inclination: 43.0 °
Period: 94.3 minutes
Semi major axis: 6861 km
RCS: Unknown
Launch date: December 1, 2025
Source: United States (US)
Launch site: AIR FORCE EASTERN TEST RANGE (AFETR)
Your satellite tracking list
Your tracking list is empty




NASA's NSSDC Master Catalog

Two Line Element Set (TLE):
1 66797U 25278G   26038.05348040  .00040028  00000-0  14561-2 0  9995
2 66797  42.9933 287.3905 0000355 288.1605  71.9208 15.27583031 10524
Source of the keplerian elements: AFSPC